Find Starlink 3624

NORAD ID: 51773 Int'l Des: 2022-017 Owner: SPXS Country: US Constellation: starlink operational
LEOCIRCULAR

リアルタイム位置

3D地球を読み込み中...

Starlink 3624について

説明を読み込み中...

次回通過

Passes for default location (London). Set your location on the main map for personalized predictions.

高度履歴

Loading altitude history...

軌道要素

1 51773U 22017F 26127.56073183 .00000275 00000-0 35374-4 0 9996
2 51773 53.2176 74.8078 0001463 82.8267 277.2891 15.08847707231492
Epoch: May 7, 2026 • Age: 15 hours

現在のステータス

高度 540.0 km
速度 7.59 km/s
衛星直下点 6.42°N, 46.69°W
打ち上げ日 Feb 25, 2022
運用期間 4.1 years
タイプ internet

技術仕様

分類 Payload
質量 297.00 kg
乾燥質量 275.00 kg
総質量 297.00 kg
長さ 0.20 m
直径 2.80 m
スパン 9.00 m
形状 Box + pan
製造者 SPXS
バスタイプ Starlink
フェーズステータス In Orbit
所有者/国 SPXS/US

Most Searched